Location: Unnamed
(53.9021°N, 27.5568°E)
Time: 00:36:23
(UTC+03:00)

STARLINK-73 - Pass Details

Date: 22 January 2020
Orbit: 528 x 531 km, 53.0° (Epoch: 24 February)

Event Time Altitude Azimuth Distance (km) Brightness Sun altitude
Exits shadow 06:09:59 14° 163° (SSE) 1,524 6.0 -26.3°
Maximum altitude 06:11:22 17° 138° (SE) 1,408 6.1 -26.1°
Drops below altitude 10° 06:14:02 10° 97° (E) 1,802 7.3 -25.7°
Sets 06:16:48 0° 78° (ENE) 2,675 8.4 -25.3°
